Location: Brannens
(44.5220°N, 0.1505°W)
Time: 18:28:15
(UTC+00:00)

Daily predictions for brighter satellites

Satellite Brightness Start Highest point End
(mag) Time Altitude Azimuth Time Altitude Azimuth Time Altitude Azimuth
Cosmos 2061 Rocket 4.5 16:53:35 10° NNW 16:59:45 69° W 17:05:56 10° S
CORIOLIS 4.5 16:55:00 10° SE 17:00:05 44° ENE 17:05:14 10° N
CZ-4 R/B 3.1 16:58:40 10° E 17:00:42 13° ENE 17:02:44 10° NNE
NOSS 8 (A) 4.5 16:58:19 10° SSW 17:01:33 52° SE 17:04:29 10° NE
Cosmos 2227 Rocket 2.7 16:56:26 10° NNW 17:01:41 37° NE 17:06:53 10° ESE
Cosmos 2297 Rocket 2.6 16:56:31 10° NNW 17:01:49 39° NE 17:07:06 10° SE
Cosmos 1238 Rocket 3.0 16:57:48 10° N 17:02:08 49° ENE 17:05:42 10° SSE
Cosmos 1842 Rocket 3.6 16:59:22 10° S 17:03:51 88° ESE 17:08:22 10° N
Meteor 2-10 Rocket 3.7 16:58:57 10° SSW 17:03:57 76° W 17:09:02 10° N
Cosmos 2344 3.9 16:59:15 10° SW 17:06:44 70° NW 17:15:00 10° NE
Okean-O 3.2 17:06:04 10° SE 17:10:06 36° ENE 17:14:10 10° N
H-2A R/B 2.8 17:13:22 10° SSE 17:17:09 57° ENE 17:20:55 10° N
Genesis I 3.5 17:17:06 10° SW 17:21:07 69° NW 17:25:07 10° NNE
Cosmos 773 Rocket 3.9 17:18:08 10° SSW 17:23:16 76° ESE 17:28:29 10° NNE
Cosmos 1743 Rocket 4.0 17:19:44 10° NNW 17:24:04 66° W 17:28:24 10° S
Cosmos 1805 Rocket 3.7 17:19:58 10° N 17:24:12 48° ENE 17:28:26 10° SSE
Cosmos 1867 4.1 17:19:21 10° SW 17:24:44 59° NW 17:30:10 10° NNE
Cosmos 2233 Rocket 4.1 17:19:43 10° N 17:26:05 88° W 17:32:22 10° S
Cosmos 2082 4.2 17:24:20 10° NNW 17:29:35 38° NE 17:34:47 10° SE
Cosmos 1447 Rocket 4.5 17:24:54 10° S 17:31:07 81° E 17:37:26 10° N
COBE Rocket 3.8 17:29:54 10° NNE 17:34:41 62° E 17:39:19 10° S
Meteor 1-27 4.4 17:29:48 10° SSW 17:35:27 78° W 17:41:13 10° N
AQUARIUS 4.3 17:32:52 10° S 17:37:22 80° WSW 17:41:54 10° NNW
Cosmos 1697 Rocket 3.4 17:32:32 10° SSE 17:37:30 32° ESE 17:42:03 12° NE
Meteor 2-2 Rocket 4.3 17:31:47 10° S 17:37:39 83° E 17:43:27 10° NNE
Okean O Rocket 4.3 17:34:47 10° SSW 17:38:18 23° W 17:41:50 10° NW
ATLAS 5 CENTAUR R/B 2.4 17:34:12 10° NW 17:40:01 78° NE 17:46:40 10° SE
Cosmos 1862 3.9 17:38:34 10° N 17:42:12 32° ENE 17:45:48 10° SE
Cosmos 1538 Rocket 4.0 17:38:25 10° SSW 17:43:40 87° ESE 17:49:01 10° NNE
BREEZE-M DEB (TANK) 3.3 17:43:21 10° WNW 17:46:39 30° N 17:47:37 22° NE
NOAA 12 4.1 17:42:30 10° SSE 17:47:49 83° ENE 17:53:11 10° NNW
Cosmos 1464 Rocket 4.0 17:43:13 10° N 17:49:18 57° ENE 17:55:18 10° SSE
Meteor 2-20 4.5 17:44:11 10° S 17:50:17 89° W 17:56:29 10° N
GEOS 3 Rocket 3.8 17:45:49 10° NE 17:51:03 75° NW 17:56:18 10° SW
Cosmos 1633 Rocket 3.3 17:49:26 10° N 17:53:39 43° ENE 17:57:51 10° SSE
Cosmos 1072 Rocket 4.4 17:52:21 10° N 17:58:30 73° E 18:04:40 10° SSE
USA 215 3.9 17:56:07 20° ENE 17:59:58 38° NNE 18:05:54 10° NW
Cosmos 1633 2.4 17:58:20 10° N 18:01:59 69° E 18:05:36 10° SSE
COSMO-SKYMED 1 2.5 17:58:56 10° NNE 18:03:16 63° E 18:07:34 10° S
Cosmos 1666 Rocket 3.4 18:00:49 10° N 18:05:12 70° E 18:09:31 10° SSE
Sich 1 3.1 18:01:53 10° N 18:06:15 83° W 18:10:37 10° S
Cosmos 1607 4.3 18:00:51 10° NW 18:07:00 68° WSW 18:13:13 10° SSE
NOSS 2-3 (E) 4.0 18:03:01 10° SSW 18:07:07 45° ESE 18:08:53 30° ENE
Cosmos 1656 3.6 18:02:21 10° SSW 18:07:55 85° WNW 18:13:25 10° NNE
Cosmos 1328 Rocket 3.8 18:04:38 10° SSE 18:08:50 44° E 18:11:27 21° NNE
USA 229 DEB 3.8 18:02:56 10° SW 18:09:29 72° NW 18:15:39 13° NE
USA 229 3.8 18:03:02 10° SW 18:09:35 73° NW 18:15:43 14° NE
Envisat 3.1 18:05:42 10° S 18:10:46 77° WSW 18:15:54 10° NNW
Cosmos 1151 Rocket 3.3 18:07:29 10° SSE 18:11:36 43° E 18:13:22 28° NE
PSLV R/B 3.7 18:09:57 10° WSW 18:12:17 33° S 18:12:19 33° S
NOSS 3-1 (A) 3.2 18:09:09 10° SSW 18:14:39 80° SE 18:18:58 21° NE
Cosmos 1356 Rocket 4.1 18:10:49 10° SSW 18:14:53 56° WNW 18:19:04 10° N
NOSS 3-1 (C) 3.5 18:09:31 10° SW 18:15:02 69° NW 18:20:15 16° NNE
CSL-04 Debris 4.1 18:10:05 10° SSE 18:15:31 65° ENE 18:20:58 10° N
NOSS 2-3 (D) 3.8 18:12:23 10° SSW 18:16:33 51° ESE 18:17:54 38° ENE
TELKOM 3 4.5 18:14:39 10° WNW 18:16:17 32° WSW 18:16:17 32° WSW
SeaSat 1 3.0 18:14:27 10° SSE 18:19:18 59° WSW 18:24:12 10° NW
YAOGAN 6 2.7 18:20:47 10° S 18:24:16 69° WSW 18:27:46 10° NNW
Lacrosse 4 Rocket 1.3 18:20:48 10° SSW 18:24:53 84° WNW 18:26:19 39° NNE
Cosmos 1371 Rocket 4.1 18:22:59 10° NNW 18:28:03 50° ENE 18:29:08 43° ESE
YAOGAN 1 2.4 18:25:52 10° SSE 18:30:11 87° ENE 18:34:33 10° NNW
CSL-04 Rocket 3.5 18:27:48 10° SSE 18:33:11 89° ENE 18:38:32 10° NNW
CZ-4 R/B 1.9 18:31:07 10° S 18:35:15 63° W 18:39:20 10° NNW
ERBS 2.9 18:32:43 10° WSW 18:35:52 51° NW 18:35:52 51° NW
Cosmos 1470 Rocket 3.4 18:31:39 10° N 18:36:08 68° E 18:37:26 44° SSE
USA 116 4.2 18:34:34 16° NNE 18:38:18 87° WNW 18:43:23 10° SSW
Cosmos 2346 Rocket 4.3 18:32:08 10° S 18:38:21 77° E 18:44:34 10° N
Cosmos 724 4.1 18:35:20 10° NNW 18:41:12 74° NE 18:43:12 42° SE
Cosmos 1980 Rocket 2.2 18:35:53 10° S 18:41:25 59° ESE 18:42:22 52° ENE
Cosmos 2112 Rocket 3.8 18:36:15 10° SSW 18:41:26 81° ESE 18:43:25 39° NNE
Meteor 2-11 Rocket 4.5 18:38:25 10° N 18:44:33 79° W 18:50:40 10° S
Cosmos 2227 Rocket 3.7 18:40:34 10° NW 18:45:42 36° WSW 18:50:49 10° S
Cosmos 2297 Rocket 3.9 18:40:45 10° NW 18:45:46 34° WSW 18:50:46 10° SSW
Cosmos 2034 Rocket 4.2 18:39:48 10° N 18:46:10 76° W 18:52:30 10° S
Cosmos 1680 Rocket 3.6 18:43:29 10° SSW 18:48:41 76° WNW 18:51:19 30° NNE
Cosmos 1939 Rocket 4.3 18:50:51 28° N 18:50:51 28° N 18:52:55 10° N
Ariane Rocket 3.2 18:54:36 54° NNE 18:54:36 54° NNE 18:58:43 10° N
NOSS 2-3 (C) 3.8 18:50:07 10° SW 18:54:28 74° NW 18:54:59 66° N
Cosmos 158 Rocket 3.9 18:50:13 10° S 18:55:05 67° SE 18:55:05 67° SE
CENTAUR R/B 4.3 18:50:01 10° NNW 18:55:36 22° NNE 18:56:35 21° NNE
Cosmos 2369 4.4 18:57:21 10° SW 19:02:51 52° WNW 19:06:07 24° N
H-2A R/B 4.4 19:09:31 12° N 19:09:31 12° N 19:09:52 10° N
Cosmos 1634 Rocket 3.8 19:01:16 10° N 19:07:07 70° NE 19:07:07 70° NE
Tsikada Rocket 4.1 19:01:40 10° SSW 19:08:00 76° W 19:14:27 10° N
Cosmos 2263 Rocket 3.4 19:03:54 10° NNW 19:06:52 29° N 19:06:52 29° N
ATLAS 3B R/B 4.3 19:09:02 10° NNW 19:12:52 17° NNE 19:12:52 17° NNE
Cosmos 2360 4.4 19:09:51 10° SW 19:15:30 67° WNW 19:16:38 54° N
Cosmos 1624 Rocket 4.3 19:14:31 10° NNW 19:19:31 68° W 19:19:31 68° W
Cosmos 2056 Rocket 3.9 19:14:57 10° NNW 19:19:10 57° NW 19:19:10 57° NW
Cosmos 1697 Rocket 3.8 19:16:02 10° SW 19:21:20 41° WNW 19:23:49 27° N
Cosmos 2278 4.5 19:17:05 10° SW 19:22:34 49° WNW 19:24:19 37° NNW
USA 215 3.4 19:43:28 68° NW 19:43:28 68° NW 19:49:06 10° NW
Cosmos 1980 Rocket 4.3 20:21:10 10° WSW 20:24:12 22° WNW 20:24:12 22° WNW
